Printer-friendly version

IAU Minor Planet Center

Minor Planet Center

MPEC 2006-S76 : 2006 SK134

The following Minor Planet Electronic Circular may be linked-to from your own Web pages, but must not otherwise be redistributed electronically.


Read MPEC 2006-S75 Read MPEC 2006-S77


M.P.E.C. 2006-S76                                Issued 2006 Sept. 27, 19:45 UT

     The Minor Planet Electronic Circulars contain information on unusual
         minor planets and routine data on comets.  They are published
   on behalf of Commission 20 of the International Astronomical Union by the
          Minor Planet Center, Smithsonian Astrophysical Observatory,
                          Cambridge, MA 02138, U.S.A.

                  Supported in part by the Brinson Foundation
                  Supported in part by the TABASGO Foundation
             Prepared using the Tamkin Foundation Computer Network

                              MPC@CFA.HARVARD.EDU
          URL http://cfa-www.harvard.edu/iau/mpc.html  ISSN 1523-6714

                                  2006 SK134

Observations:
     K06SD4K* C2006 09 27.13159 21 34 34.50 +11 06 55.9          18.6 V ES076703
     K06SD4K  C2006 09 27.13752 21 34 35.32 +11 06 26.1          18.5 V ES076703
     K06SD4K  C2006 09 27.14341 21 34 36.19 +11 05 55.6          18.8 V ES076703
     K06SD4K  C2006 09 27.14935 21 34 37.05 +11 05 28.1          18.4 V ES076703
     K06SD4K  C2006 09 27.18706 21 34 42.31 +11 02 17.8          18.8 V ES076703
     K06SD4K  C2006 09 27.18758 21 34 42.34 +11 02 15.6          18.4 V ES076703
     K06SD4K  C2006 09 27.18810 21 34 42.42 +11 02 12.1          18.4 V ES076703
     K06SD4K  C2006 09 27.23198 21 34 48.61 +10 58 33.1          18.3 V ES076703
     K06SD4K  C2006 09 27.24043 21 34 49.83 +10 57 50.9          18.3 V ES076703
     K06SD4K  C2006 09 27.24888 21 34 50.95 +10 57 08.1          18.4 V ES076703
     K06SD4K  C2006 09 27.25735 21 34 52.14 +10 56 26.5          18.5 V ES076703
     K06SD4K  C2006 09 27.32169 21 35 01.28 +10 51 04.8          18.4 V ES076703
     K06SD4K  C2006 09 27.32257 21 35 01.39 +10 51 00.7          18.5 V ES076703
     K06SD4K  C2006 09 27.32345 21 35 01.46 +10 50 56.7          18.5 V ES076703
     K06SD4K  C2006 09 27.32434 21 35 01.64 +10 50 51.8          18.6 V ES076703
     K06SD4K  C2006 09 27.75299 21 36 05.52 +10 15 31.4          19.2 R ES076118
     K06SD4K  C2006 09 27.75389 21 36 05.73 +10 15 27.8          18.5 R ES076118
     K06SD4K  C2006 09 27.75746 21 36 06.17 +10 15 10.0          18.5 R ES076118

Observer details:
118 Modra.  Observers J. Vilagi, L. Kornos.  0.6-m f/5.5 reflector + CCD.
703 Catalina Sky Survey.  Observer R. E. Hill.  Measurers E. C. Beshore,
    E. J. Christensen, G. J. Garradd, A. R. Gibbs, A. D. Grauer, R. E. Hill,
    R. A. Kowalski, S. M. Larson, R. H. McNaught.  0.68-m Schmidt + CCD.

Orbital elements:
2006 SK134                                               Earth MOID = 0.0949 AU
Epoch 2006 Sept. 22.0 TT = JDT 2454000.5                MPC
M  31.93322              (2000.0)            P               Q
n   0.39198770     Peri.   72.12838     -0.23048744     +0.97158399
a   1.8490745      Node   185.47682     -0.95812638     -0.21693532
e   0.5408591      Incl.   34.34929     +0.16990991     +0.09467638
P   2.51           H   18.4           G   0.15           U   9
Residuals in seconds of arc
060927 703  0.1-  0.2+    060927 703  0.4-  0.7-    060927 703  0.2+  0.2+
060927 703  0.3-  0.1+    060927 703  0.1+  0.2-    060927 703  0.6-  0.6+
060927 703  0.3+  0.9-    060927 703  0.6+  0.1-    060927 703  0.2+  0.1+
060927 703  0.6+  1.4+    060927 703  0.3-  0.6-    060927 118  0.5-  0.4-
060927 703  0.1+  0.2-    060927 703  0.3-  0.1+    060927 118  0.7+  0.4+
060927 703  0.5-  0.2+    060927 703  0.4+  0.1-    060927 118  0.2-  0.0

Ephemeris:
2006 SK134               a,e,i = 1.85, 0.54, 34                  q = 0.8490
Date    TT    R. A. (2000) Decl.     Delta      r     Elong.  Phase     V
2006 09 22    21 20.96   +18 58.5    0.397    1.324   137.4    30.9    18.3
2006 10 02    21 45.86   +04 58.2    0.488    1.405   138.7    28.1    18.8
2006 10 12    22 05.87   -04 07.0    0.611    1.485   133.2    29.4    19.5
2006 10 22    22 23.36   -09 39.8    0.757    1.563   125.7    31.1    20.1
2006 11 01    22 39.59   -12 54.4    0.918    1.640   118.2    32.3    20.7
2006 11 11    22 55.15   -14 40.0    1.090    1.714   110.9    32.7    21.1
2006 11 21    23 10.36   -15 26.8    1.269    1.786   103.9    32.5    21.5
2006 12 01    23 25.45   -15 33.6    1.453    1.855    97.2    31.8    21.9

Timothy B. Spahr             (C) Copyright 2006 MPC           M.P.E.C. 2006-S76

Read MPEC 2006-S75 Read MPEC 2006-S77


Our Web policy. Index to the CBAT/MPC/ICQ pages.


Valid HTML 4.01!